Back to catalog

STARLINK-35967

AliveCommunicationsVLEO
NORAD 66634·PAYLOAD·🇺🇸 United States

Launched Nov 23, 2025 from Vandenberg Space Force Base

Loading…

Next Passes (next 24 hours)

TLE

FreshSource: CelesTrak SupGP

Epoch: Sep 14, 2026, 15:42 UTC

1 66634C 25271T   26257.65465278  .00005342  00000+0  15791-3 0  2573
2 66634  53.1600 337.1945 0001202  78.5502 107.6774 15.34372360    13

Track STARLINK-35967 in real time with AllMySat

Download on the App Store